Location: Burbank
(38.7788°N, 114.0429°W)
Time: 03:49:51
(UTC+00:00)

Transit 2A Rocket - Pass Details

Date: 17 May 2026
Orbit: 589 x 893 km, 66.7° (Epoch: 9 June)

Event Time Altitude Azimuth Distance (km) Brightness Sun altitude
Rises 09:42:54 0° 346° (NNW) 2,988 8.7 -24.3°
Reaches altitude 10° 09:46:05 10° 8° (N) 2,019 8.0 -24.0°
Maximum altitude 09:48:52 16° 46° (NE) 1,622 7.6 -23.7°
Drops below altitude 10° 09:51:35 10° 85° (E) 1,944 7.6 -23.4°
Sets 09:54:33 0° 107° (ESE) 2,820 8.2 -23.0°
